FW4267 Weather Reports


Display with metric or nautical units.
time (UTC)temp
F
wind
direction
speed
MPH
gust
MPH
rain 1hr
in
rain 24hr
in
rain mn
in
humidity
%
barometer
mb
20260504015209 56 100 1.0 5.0 0.00 0.06 0.00 95 1010.2
20260504015021 56 90 1.0 5.0 0.00 0.06 0.00 95 1010.3
20260504014208 56 104 0.0 1.0 0.00 0.06 0.00 95 1010.2
20260504013709 56 103 1.0 1.0 0.00 0.06 0.00 95 1010.2
20260504013206 56 103 0.0 0.0 0.00 0.06 0.00 95 1010.3
20260504012707 56 103 0.0 0.0 0.00 0.06 0.00 95 1010.3
20260504012209 56 103 0.0 0.0 0.00 0.06 0.00 95 1010.3
20260504011708 56 103 0.0 0.0 0.00 0.06 0.00 95 1010.4
20260504011208 56 103 0.0 0.0 0.00 0.06 0.00 95 1010.4
20260504010707 56 103 0.0 0.0 0.00 0.06 0.00 95 1010.3
20260504010207 56 103 0.0 0.0 0.00 0.06 0.00 95 1010.4
20260504005706 56 103 0.0 0.0 0.00 0.06 0.00 95 1010.4
20260504005204 56 103 0.0 0.0 0.00 0.06 0.00 95 1010.6
20260504004708 56 103 0.0 0.0 0.00 0.06 0.00 95 1010.7
20260504004207 56 103 0.0 0.0 0.00 0.06 0.00 94 1010.8
20260504003708 56 103 0.0 1.0 0.00 0.06 0.00 94 1010.7
20260504003206 56 103 0.0 1.0 0.00 0.06 0.00 95 1010.5
20260504002709 56 103 0.0 1.0 0.00 0.06 0.00 94 1010.6
20260504002206 56 103 0.0 1.0 0.00 0.06 0.00 94 1010.6
20260504001706 56 103 0.0 1.0 0.00 0.06 0.00 94 1010.6
20260504001206 56 103 0.0 1.0 0.00 0.06 0.00 94 1010.4
20260504000707 56 103 0.0 1.0 0.00 0.06 0.00 94 1010.4
20260504000220 56 103 0.0 1.0 0.00 0.06 0.00 94 1010.5
20260503235705 56 106 1.0 1.0 0.00 0.06 0.00 94 1010.5
20260503235208 56 114 0.0 1.0 0.00 0.06 0.00 94 1010.8
20260503234706 56 114 0.0 1.0 0.00 0.06 0.00 94 1010.8
20260503234217 56 114 0.0 1.0 0.00 0.06 0.00 94 1010.8
20260503233706 56 114 0.0 1.0 0.00 0.06 0.00 94 1010.9
20260503233517 57 114 0.0 0.0 0.00 0.06 0.00 94 1010.7
20260503232704 57 114 0.0 1.0 0.00 0.06 0.00 94 1010.8
20260503232204 57 113 0.0 1.0 0.00 0.06 0.00 94 1010.9
20260503232012 57 114 0.0 1.0 0.00 0.06 0.00 94 1010.8
20260503231206 57 114 0.0 1.0 0.00 0.06 0.00 94 1010.8
20260503230815 57 114 0.0 1.0 0.00 0.06 0.00 94 1010.8
20260503225704 57 103 0.0 1.0 0.00 0.06 0.00 94 1010.8
20260503225204 57 103 0.0 1.0 0.00 0.06 0.00 94 1010.9
20260503224702 57 103 0.0 1.0 0.00 0.06 0.00 94 1010.9
20260503224517 57 103 0.0 0.0 0.00 0.06 0.00 94 1010.9
20260503223705 57 103 0.0 0.0 0.00 0.06 0.00 94 1011.0
20260503223206 57 103 0.0 0.0 0.00 0.06 0.00 94 1010.9
20260503223018 57 103 0.0 0.0 0.00 0.06 0.00 94 1010.9
20260503222207 57 103 0.0 0.0 0.00 0.06 0.00 94 1011.1
20260503221704 57 103 0.0 0.0 0.00 0.06 0.00 94 1011.2
20260503221204 57 103 0.0 0.0 0.00 0.06 0.00 94 1011.2
20260503220703 57 103 0.0 0.0 0.00 0.06 0.00 94 1011.2
20260503220204 57 103 0.0 0.0 0.00 0.06 0.00 94 1011.3
20260503215705 57 103 0.0 0.0 0.00 0.06 0.06 93 1011.3
20260503215203 57 103 0.0 0.0 0.00 0.06 0.06 93 1011.3
20260503214705 57 103 0.0 0.0 0.00 0.06 0.06 93 1011.3
20260503214203 57 103 0.0 0.0 0.00 0.06 0.06 93 1011.3
20260503213709 57 103 0.0 1.0 0.00 0.06 0.06 93 1011.3
20260503213204 57 103 0.0 1.0 0.00 0.06 0.06 93 1011.2
20260503212703 58 103 0.0 1.0 0.00 0.06 0.06 93 1011.2
20260503212406 58 103 0.0 1.0 0.01 0.06 0.06 93 1011.1
20260503212315 58 103 0.0 1.0 0.00 0.06 0.06 93 1011.1
20260503211205 58 103 0.0 2.0 0.02 0.06 0.06 93 1011.3
20260503210707 58 111 0.0 3.0 0.03 0.06 0.06 93 1011.2
20260503210205 58 93 1.0 4.0 0.04 0.06 0.06 93 1011.1
20260503205703 58 113 1.0 4.0 0.05 0.06 0.06 93 1011.0
20260503205206 58 113 2.0 5.0 0.06 0.06 0.06 93 1011.0
20260503204702 58 111 2.0 5.0 0.06 0.06 0.06 93 1010.9
20260503204159 58 116 3.0 4.0 0.06 0.06 0.06 93 1011.0
20260503204035 58 89 1.0 1.0 0.06 0.06 0.06 92 1011.1
20260503203201 58 92 0.0 1.0 0.06 0.06 0.06 92 1011.1
20260503203029 58 62 0.0 1.0 0.06 0.06 0.06 92 1011.2
20260503202202 58 62 0.0 1.0 0.06 0.06 0.06 92 1011.1
20260503202035 58 62 0.0 1.0 0.05 0.06 0.06 91 1011.1
20260503201203 58 62 0.0 1.0 0.03 0.04 0.04 91 1011.1
20260503201025 59 341 0.0 1.0 0.03 0.03 0.03 91 1011.2
20260503200531 59 341 1.0 1.0 0.02 0.02 0.02 90 1011.3
20260503195658 59 61 0.0 1.0 0.02 0.02 0.02 90 1011.2
20260503195200 59 113 0.0 2.0 0.01 0.01 0.01 89 1011.1
20260503194702 59 288 0.0 2.0 0.01 0.01 0.01 89 1011.1
20260503194202 59 203 0.0 1.0 0.01 0.01 0.01 88 1011.1
20260503194013 59 203 0.0 1.0 0.01 0.01 0.01 88 1011.0
20260503193202 59 203 0.0 3.0 0.01 0.01 0.01 88 1011.0
20260503192701 60 199 0.0 5.0 0.01 0.01 0.01 87 1010.9
20260503192539 60 109 2.0 7.0 0.01 0.01 0.01 87 1010.7
20260503191701 60 113 3.0 7.0 0.01 0.01 0.01 87 1010.3
20260503191157 60 107 3.0 9.0 0.01 0.01 0.01 87 1010.2
20260503190700 60 99 4.0 10.0 0.00 0.00 0.00 86 1010.1
20260503190159 60 113 6.0 11.0 0.00 0.00 0.00 85 1010.1
20260503185705 60 97 7.0 11.0 0.00 0.00 0.00 84 1010.2
20260503185200 61 96 4.0 11.0 0.00 0.00 0.00 84 1010.2
20260503184702 61 110 6.0 11.0 0.00 0.00 0.00 83 1010.1
20260503184200 61 93 3.0 14.0 0.00 0.00 0.00 83 1010.1
20260503183700 61 104 5.0 14.0 0.00 0.00 0.00 83 1010.0
20260503183536 61 92 5.0 12.0 0.00 0.00 0.00 83 1009.9
20260503182658 61 117 6.0 12.0 0.00 0.00 0.00 83 1009.9
20260503182405 61 125 6.0 13.0 0.00 0.00 0.00 83 1010.0
20260503182317 61 128 6.0 12.0 0.00 0.00 0.00 83 1009.9
20260503181202 61 80 6.0 17.0 0.00 0.00 0.00 83 1010.0
20260503180659 61 102 8.0 17.0 0.00 0.00 0.00 82 1009.9
20260503180530 61 83 6.0 12.0 0.00 0.00 0.00 83 1009.8
20260503175659 61 107 6.0 16.0 0.00 0.00 0.00 83 1009.8
20260503175158 61 104 9.0 16.0 0.00 0.00 0.00 82 1009.7
20260503174657 61 82 8.0 16.0 0.00 0.00 0.00 82 1009.6
20260503174155 61 121 6.0 13.0 0.00 0.00 0.00 82 1009.7
20260503173659 61 97 8.0 17.0 0.00 0.00 0.00 82 1009.6
20260503173158 61 114 9.0 17.0 0.00 0.00 0.00 82 1009.7
20260503173029 61 107 10.0 20.0 0.00 0.00 0.00 82 1009.7
20260503172157 61 117 10.0 20.0 0.00 0.00 0.00 82 1009.8
20260503171658 62 103 11.0 17.0 0.00 0.00 0.00 81 1009.8
20260503171158 62 102 9.0 21.0 0.00 0.00 0.00 81 1010.0
20260503171020 62 93 10.0 21.0 0.00 0.00 0.00 81 1009.9
20260503170158 62 100 9.0 19.0 0.00 0.00 0.00 81 1010.1
20260503160155 64 97 12.0 18.0 0.00 0.00 0.00 78 1010.1
20260503150655 67 103 10.0 20.0 0.00 0.00 0.00 74 1010.6
20260503150153 66 71 12.0 26.0 0.00 0.00 0.00 75 1010.5
20260503140153 68 135 9.0 18.0 0.00 0.00 0.00 70 1011.5
20260503131151 70 116 10.0 17.0 0.00 0.00 0.00 65 1011.5
20260503131004 70 96 8.0 13.0 0.00 0.00 0.00 65 1011.6
20260503130149 70 80 7.0 12.0 0.00 0.00 0.00 65 1011.6
20260503120146 70 92 7.0 15.0 0.00 0.00 0.00 67 1012.2
20260503110647 69 113 5.0 12.0 0.00 0.00 0.00 65 1012.7
20260503110200 70 121 3.0 10.0 0.00 0.00 0.00 67 1012.8
20260503100159 68 102 4.0 12.0 0.00 0.00 0.00 71 1013.1
20260503090454 66 82 7.0 12.0 0.00 0.00 0.00 75 1013.3
20260503081143 64 56 5.0 14.0 0.00 0.00 0.00 78 1013.3
20260503080643 64 103 8.0 14.0 0.00 0.00 0.00 77 1013.3
20260503080143 64 124 5.0 9.0 0.00 0.00 0.00 79 1013.2
20260503072656 63 117 4.0 11.0 0.00 0.00 0.00 81 1013.3
20260503072142 62 96 6.0 11.0 0.00 0.00 0.00 80 1013.2
20260503071642 62 124 6.0 9.0 0.00 0.00 0.00 81 1013.2
20260503071142 62 44 4.0 10.0 0.00 0.00 0.00 83 1013.2
20260503070642 61 79 6.0 11.0 0.00 0.00 0.00 83 1013.3
20260503070451 60 100 6.0 12.0 0.00 0.00 0.00 83 1013.2
20260503060141 57 114 1.0 3.0 0.00 0.00 0.00 89 1013.1
20260503054641 56 97 1.0 3.0 0.00 0.00 0.00 90 1012.9
20260503054140 56 89 1.0 2.0 0.00 0.00 0.00 90 1012.8
20260503053639 56 87 1.0 2.0 0.00 0.00 0.00 90 1012.8
20260503053139 56 114 1.0 2.0 0.00 0.00 0.00 90 1012.7
20260503052640 56 111 1.0 2.0 0.00 0.00 0.00 90 1012.7
20260503052140 55 106 1.0 2.0 0.00 0.00 0.00 90 1012.7
20260503051640 55 106 1.0 2.0 0.00 0.00 0.00 90 1012.7
20260503051137 55 110 1.0 1.0 0.00 0.00 0.00 90 1012.8
20260503050639 55 102 0.0 1.0 0.00 0.00 0.00 90 1012.8
20260503050151 55 102 0.0 1.0 0.00 0.00 0.00 90 1012.7
20260503045639 55 110 0.0 1.0 0.00 0.00 0.00 90 1012.7
20260503045448 55 111 0.0 2.0 0.00 0.00 0.00 90 1012.7
20260503044950 56 107 0.0 2.0 0.00 0.00 0.00 90 1012.6
20260503044139 56 89 1.0 3.0 0.00 0.00 0.00 90 1012.6
20260503043639 56 107 1.0 3.0 0.00 0.00 0.00 90 1012.5
20260503043138 56 106 0.0 2.0 0.00 0.00 0.00 90 1012.6
20260503042638 56 99 1.0 2.0 0.00 0.00 0.00 90 1012.6
20260503042139 56 111 0.0 2.0 0.00 0.00 0.00 90 1012.6
20260503041947 56 104 0.0 2.0 0.00 0.00 0.00 90 1012.5
20260503041139 56 94 0.0 2.0 0.00 0.00 0.00 90 1012.6
20260503040943 56 116 0.0 2.0 0.00 0.00 0.00 90 1012.7
20260503040141 56 100 0.0 3.0 0.00 0.00 0.00 90 1012.6
20260503035637 56 97 0.0 4.0 0.00 0.00 0.00 90 1012.7
20260503035258 56 109 2.0 4.0 0.00 0.00 0.00 90 1012.8
20260503035229 56 97 2.0 4.0 0.00 0.00 0.00 90 1012.7
20260503034140 55 100 1.0 1.0 0.00 0.00 0.00 90 1012.8
20260503033637 55 102 0.0 1.0 0.00 0.00 0.00 90 1012.8
20260503033137 55 90 0.0 0.0 0.00 0.00 0.00 90 1012.8
20260503032636 55 90 0.0 0.0 0.00 0.00 0.00 89 1012.8
20260503032134 55 90 0.0 0.0 0.00 0.00 0.00 89 1012.8
20260503031637 56 90 0.0 0.0 0.00 0.00 0.00 89 1012.9
20260503031137 56 90 0.0 1.0 0.00 0.00 0.00 88 1013.1
20260503030636 56 90 0.0 1.0 0.00 0.00 0.00 88 1013.0
20260503030448 56 90 0.0 1.0 0.00 0.00 0.00 88 1012.8
20260503025636 56 90 1.0 2.0 0.00 0.00 0.00 88 1012.9
20260503025135 56 92 1.0 2.0 0.00 0.00 0.00 88 1013.0
20260503024634 56 100 1.0 2.0 0.00 0.00 0.00 87 1012.9
20260503024135 57 96 1.0 2.0 0.00 0.00 0.00 87 1013.0
20260503023635 57 110 0.0 2.0 0.00 0.00 0.00 87 1013.0
20260503023135 57 96 0.0 2.0 0.00 0.00 0.00 87 1013.0
20260503022942 57 120 0.0 2.0 0.00 0.00 0.00 86 1013.1
20260503022136 57 85 0.0 2.0 0.00 0.00 0.00 86 1013.1
20260503021634 57 87 0.0 1.0 0.00 0.00 0.00 86 1013.2
20260503021132 57 83 0.0 1.0 0.00 0.00 0.00 86 1013.3
20260503020635 57 79 0.0 2.0 0.00 0.00 0.00 86 1013.2
20260503020147 57 79 0.0 2.0 0.00 0.00 0.00 86 1013.2
20260503015634 57 100 1.0 3.0 0.00 0.00 0.00 86 1013.2